Temp
48 44 41 47 48 46 44 40 41 45 49 45 46 46 54 52 46 45 46 45 47 47 45 43 43 42 41 41 43 47 48 49 49 47 46 46 44 45 45 46 48 47 47 45
43 40 50 52 48 46 42 40 40 45 48 47 45 46 48 50 48 51 52 51 50 46 40 41 40 40 40 44 47 48 48 49 49 49 47 47 46 45 44 44 45 45 44 44
42 46 50 50 44 43 41 40 39 42 45 43 42 44 44 49 51 52 54 58 54 49 42 41 40 40 39 45 47 48 48 48 49 47 46 44 45 44 43 42 41 42 42 41
43 49 48 44 43 46 38 45 45 43 39 34 40 36 44 47 48 47 53 57 51 45 44 42 41 40 40 45 48 48 48 48 47 47 45 45 43 41 42 41 41 40 41 40
44 43 43 42 44 47 42 46 43 40 36 33 32 34 38 43 43 47 54 52 46 44 43 41 41 42 42 47 47 48 49 46 46 46 46 45 43 41 40 39 39 38 38 38
43 45 46 46 45 47 47 43 40 36 35 30 38 37 47 44 46 48 47 45 45 41 41 42 42 41 42 47 47 47 46 45 45 46 46 43 40 39 38 38 37 37 36 36
40 42 44 47 42 43 44 40 30 27 25 29 33 33 46 48 51 49 48 44 42 39 38 38 37 38 42 44 46 46 46 43 45 44 43 42 41 41 40 39 37 35 34 33
34 33 43 46 47 43 39 40 30 22 23 27 32 29 39 45 47 45 43 40 38 36 37 37 38 38 41 44 45 46 44 43 43 42 40 40 40 39 40 39 37 36 33 32
33 35 41 42 44 50 38 35 44 32 18 23 30 35 43 45 44 45 39 37 36 35 35 36 37 39 40 43 45 45 44 43 43 41 40 40 39 40 38 36 35 33 31 32
42 34 38 41 46 43 42 45 35 33 22 22 27 29 36 42 46 43 39 37 35 34 34 34 36 37 39 41 45 45 44 42 42 41 41 40 39 39 37 36 31 31 31 30
44 39 34 39 37 38 38 36 38 39 32 23 20 32 39 42 41 42 40 39 35 33 33 34 35 36 37 37 44 43 42 41 41 41 41 39 37 36 35 33 31 30 30 29
44 39 28 35 39 42 42 42 43 33 27 29 27 35 42 41 40 39 40 38 35 35 34 33 34 34 34 36 38 41 41 40 40 41 39 37 36 34 33 30 29 30 29 29
44 35 30 30 35 37 37 40 46 41 34 29 30 35 40 39 39 39 39 35 35 34 33 33 33 34 35 36 36 38 38 39 39 38 37 35 33 33 30 29 29 30 29 28
46 35 33 35 34 36 32 35 40 41 32 32 34 40 46 40 41 41 36 36 35 35 35 34 34 35 35 37 37 37 38 40 38 37 35 34 32 32 30 30 30 30 30 29
43 34 35 36 37 36 35 35 36 38 40 35 40 37 45 46 45 47 42 39 35 35 35 35 35 35 35 35 36 37 37 36 37 35 34 33 33 32 31 30 30 30 29 29
40 35 35 35 36 35 34 35 37 38 41 42 41 40 51 45 41 42 42 39 36 36 37 37 36 36 35 35 36 36 36 35 36 35 34 33 32 31 30 30 29 28 28 27
35 37 34 33 37 34 30 36 37 39 42 42 36 43 49 43 47 48 45 40 39 40 39 38 37 37 37 36 37 35 35 35 35 34 33 31 31 30 29 29 28 27 26 26
34 33 32 31 30 25 36 36 41 40 42 44 45 46 47 48 49 44 43 43 42 42 41 40 39 39 39 39 38 37 35 33 33 32 30 31 30 29 29 28 27 26 25 24
38 36 32 29 29 32 32 32 33 34 37 43 43 46 47 49 37 44 42 44 47 44 44 42 41 39 40 38 38 37 34 34 33 32 30 31 30 29 27 26 26 26 24 23
32 34 32 29 25 23 31 29 36 37 32 31 41 43 43 37 32 42 39 38 38 40 39 37 36 36 37 37 37 35 33 32 32 32 32 32 30 28 26 27 25 24 24 23
26 27 27 28 26 28 34 33 36 28 30 32 33 34 30 34 37 35 35 34 35 36 36 35 36 37 38 37 36 34 34 32 35 34 32 31 30 27 26 26 25 22 22 21
26 26 25 27 25 23 34 32 34 35 34 35 32 32 34 34 34 32 32 32 34 35 34 34 33 33 34 36 35 34 33 35 34 32 29 27 27 27 26 25 23 22 22 20
25 29 26 31 31 33 31 31 34 35 36 36 34 34 33 34 34 33 33 30 32 31 32 32 32 30 31 34 35 33 33 31 30 29 29 27 27 27 26 24 23 21 21 20
26 29 26 28 31 32 33 33 34 35 36 36 35 34 34 33 34 32 32 32 31 30 29 24 25 26 25 24 29 30 28 30 30 28 28 27 26 26 25 25 24 23 20 20
28 29 26 27 31 31 34 33 36 35 34 33 33 33 34 33 27 29 27 28 29 28 23 22 23 23 22 21 21 21 25 28 27 27 25 24 24 24 23 24 23 22 22 23
26 27 27 27 34 35 36 35 35 35 33 33 33 31 31 32 32 28 26 29 24 22 20 20 18 18 16 18 19 19 23 26 24 20 19 21 21 19 20 20 12 27 26 27
MSLP
1017.64 1018.27 1018.37 1018.01 1018.17 1018.44 1018.86 1019.13 1018.95 1018.18 1017.72 1017.97 1017.73 1017.36 1016.59 1016.85 1017.55 1017.80 1017.97 1018.22 1018.27 1018.49 1019.06 1020.16 1020.89 1021.44 1022.00 1022.35 1022.51 1022.60 1022.72 1023.08 1023.33 1023.85 1024.46 1024.98 1025.52 1025.94 1026.17 1026.48 1026.84 1026.72 1027.26 1027.60
1018.49 1017.91 1017.31 1017.76 1018.32 1018.81 1018.95 1019.18 1018.99 1018.19 1017.82 1018.08 1017.46 1016.51 1016.28 1016.12 1016.21 1015.97 1015.99 1016.22 1016.61 1017.80 1018.84 1019.97 1020.85 1021.39 1021.79 1022.01 1022.19 1022.49 1022.76 1023.10 1023.47 1023.79 1024.35 1024.89 1025.70 1026.61 1026.92 1027.24 1027.36 1027.35 1027.73 1027.93
1017.68 1016.99 1016.89 1017.69 1018.30 1018.91 1019.09 1019.27 1019.26 1019.03 1018.18 1017.89 1017.46 1015.16 1014.94 1014.36 1014.32 1014.20 1014.17 1013.92 1014.96 1016.05 1017.92 1019.38 1020.38 1020.89 1021.37 1021.52 1021.77 1022.12 1022.57 1023.00 1023.38 1023.83 1024.44 1025.30 1026.27 1026.67 1027.41 1027.85 1027.80 1028.13 1028.17 1028.57
1017.73 1016.89 1017.12 1017.62 1017.93 1018.18 1018.57 1018.28 1018.81 1019.32 1019.58 1019.16 1018.18 1014.12 1013.76 1013.61 1013.43 1013.47 1013.01 1012.69 1014.25 1015.67 1017.14 1018.45 1019.50 1020.24 1020.63 1020.96 1021.42 1021.82 1022.25 1022.79 1023.34 1023.70 1024.44 1024.85 1025.24 1026.27 1027.31 1027.81 1028.41 1028.69 1028.72 1029.49
1016.39 1016.84 1017.09 1017.27 1016.96 1017.67 1017.94 1018.04 1018.93 1019.37 1019.78 1019.71 1018.93 1018.37 1011.94 1013.01 1013.12 1012.82 1011.66 1012.65 1013.74 1014.97 1016.06 1017.21 1018.01 1018.98 1020.01 1020.53 1021.05 1021.67 1022.25 1022.92 1023.41 1023.86 1024.44 1024.84 1025.66 1026.26 1027.42 1028.07 1028.85 1028.95 1029.36 1029.91
1016.58 1016.41 1016.60 1016.69 1016.95 1017.05 1017.70 1018.44 1019.42 1020.18 1020.51 1019.74 1018.58 1018.23 1008.65 1012.10 1012.15 1011.93 1012.09 1012.87 1013.97 1015.08 1016.03 1017.16 1018.19 1018.96 1019.73 1020.24 1020.79 1021.39 1022.00 1022.71 1023.46 1024.01 1024.60 1025.13 1025.76 1026.30 1027.33 1028.20 1028.93 1029.44 1029.75 1030.29
1016.63 1016.35 1016.21 1016.25 1016.96 1017.43 1017.75 1018.85 1020.27 1021.09 1021.48 1019.53 1018.53 1017.90 1012.25 1012.25 1011.82 1012.05 1012.83 1013.31 1014.41 1015.44 1016.33 1017.11 1018.09 1018.89 1019.52 1020.00 1020.56 1021.22 1021.84 1022.63 1023.25 1023.97 1024.67 1025.43 1026.17 1026.66 1027.06 1027.90 1028.55 1029.23 1029.83 1030.61
1016.58 1016.46 1015.75 1015.68 1015.54 1016.33 1017.48 1018.02 1019.27 1020.50 1021.35 1020.32 1019.26 1016.50 1012.84 1012.02 1011.47 1011.90 1012.97 1013.90 1014.84 1016.07 1016.84 1017.45 1017.84 1018.45 1019.16 1019.76 1020.37 1021.00 1021.66 1022.41 1023.14 1023.85 1024.64 1025.37 1026.20 1027.03 1027.71 1028.20 1028.88 1029.58 1030.13 1030.79
1016.09 1015.78 1015.27 1015.47 1015.21 1015.65 1017.35 1017.72 1018.00 1019.61 1021.37 1021.06 1018.36 1015.46 1013.00 1011.85 1012.12 1012.12 1013.27 1014.25 1015.27 1016.53 1017.44 1017.98 1018.47 1018.77 1019.27 1019.73 1020.15 1020.62 1021.24 1022.01 1022.84 1023.69 1024.55 1025.57 1026.42 1027.29 1027.85 1028.41 1029.07 1029.71 1030.32 1030.97
1015.10 1015.70 1015.59 1015.48 1015.37 1016.00 1016.01 1016.61 1018.12 1019.45 1020.91 1020.72 1017.81 1016.04 1013.80 1012.38 1012.02 1012.55 1013.71 1014.77 1015.95 1016.54 1017.80 1018.74 1018.69 1018.92 1019.37 1019.80 1020.34 1020.97 1021.57 1022.17 1022.89 1023.57 1024.25 1024.98 1025.74 1026.78 1027.68 1028.54 1029.37 1030.01 1030.50 1031.14
1014.88 1015.43 1016.18 1015.92 1015.67 1015.49 1016.46 1016.60 1017.31 1018.09 1019.15 1019.28 1018.18 1014.17 1012.35 1012.23 1012.47 1013.10 1013.54 1014.35 1015.67 1016.90 1017.69 1018.31 1019.29 1019.77 1019.58 1019.63 1019.93 1020.57 1021.35 1022.17 1023.22 1024.05 1024.75 1025.47 1026.20 1027.06 1027.94 1028.69 1029.55 1030.22 1031.15 1032.02
1014.25 1015.11 1015.92 1015.61 1015.52 1015.41 1015.36 1015.36 1015.98 1017.13 1018.25 1018.27 1017.75 1012.77 1011.57 1011.92 1012.30 1012.95 1013.49 1014.28 1015.45 1016.70 1017.53 1018.38 1019.10 1019.95 1020.44 1020.25 1020.28 1020.51 1021.08 1021.81 1022.82 1023.74 1024.54 1025.42 1026.55 1027.60 1028.56 1029.36 1030.11 1030.34 1031.12 1031.82
1013.73 1014.75 1015.91 1015.85 1015.92 1015.83 1015.49 1015.15 1014.95 1015.79 1016.81 1016.66 1016.93 1012.20 1011.74 1011.77 1012.04 1012.48 1013.36 1014.41 1015.44 1016.67 1017.42 1018.00 1018.77 1019.16 1019.94 1020.50 1020.48 1020.71 1021.32 1021.77 1022.48 1023.41 1024.48 1025.50 1026.40 1027.34 1028.41 1029.48 1030.51 1030.95 1031.47 1032.08
1012.96 1014.14 1014.10 1013.92 1014.03 1014.19 1014.96 1014.60 1014.68 1014.99 1015.65 1015.09 1013.71 1011.84 1010.68 1011.59 1011.96 1012.21 1013.10 1014.40 1015.23 1016.13 1017.24 1017.57 1017.78 1018.04 1018.58 1019.66 1019.78 1020.28 1020.92 1021.60 1022.40 1023.18 1024.05 1024.98 1026.15 1026.96 1028.03 1029.02 1029.93 1030.65 1031.11 1031.83
1013.33 1013.74 1014.07 1013.52 1013.76 1014.08 1013.97 1013.81 1014.02 1013.88 1012.64 1013.60 1010.95 1012.36 1008.54 1010.97 1011.18 1011.49 1012.48 1013.48 1014.62 1015.59 1016.40 1016.50 1016.89 1017.52 1018.02 1018.80 1019.74 1019.96 1020.45 1021.01 1021.78 1022.94 1024.06 1024.78 1025.78 1026.79 1027.85 1028.96 1029.72 1030.68 1031.28 1031.77
1013.01 1013.11 1013.43 1013.23 1013.28 1014.08 1014.05 1013.54 1012.31 1013.04 1012.85 1012.74 1011.20 1010.88 1007.47 1010.03 1010.59 1011.09 1011.55 1012.74 1013.70 1014.53 1014.93 1015.29 1015.83 1016.86 1017.17 1017.60 1018.72 1019.54 1020.26 1020.94 1021.68 1022.35 1023.22 1024.57 1025.60 1026.64 1027.70 1028.75 1029.65 1030.66 1031.36 1031.96
1013.56 1012.84 1013.01 1012.03 1012.42 1013.38 1013.23 1010.43 1011.78 1011.47 1011.97 1011.46 1011.15 1007.96 1007.12 1009.69 1010.05 1010.14 1010.83 1011.81 1012.29 1012.70 1013.54 1014.06 1014.32 1014.89 1016.08 1016.60 1017.31 1018.52 1019.63 1020.62 1021.55 1022.28 1023.24 1024.34 1025.33 1026.24 1027.26 1028.39 1029.28 1030.34 1031.06 1031.77
1012.82 1013.26 1012.54 1011.65 1012.44 1011.15 1009.84 1009.83 1009.98 1010.11 1010.50 1010.13 1009.54 1008.45 1008.33 1008.76 1008.93 1009.54 1009.96 1010.17 1010.74 1011.37 1012.24 1012.49 1013.12 1013.88 1014.38 1015.64 1016.73 1017.56 1018.54 1019.79 1020.83 1021.87 1022.80 1023.72 1024.74 1025.95 1026.79 1027.85 1028.68 1029.66 1030.62 1031.35
1012.62 1012.89 1012.43 1011.72 1011.04 1010.72 1010.13 1009.92 1009.89 1010.05 1009.24 1008.75 1009.01 1008.83 1008.32 1008.21 1009.88 1009.08 1009.30 1009.09 1009.40 1009.78 1010.54 1010.90 1011.84 1013.15 1014.50 1015.56 1016.45 1017.32 1018.09 1018.93 1019.94 1020.89 1021.74 1022.76 1023.88 1025.07 1026.40 1027.29 1028.18 1029.13 1030.22 1030.98
1013.04 1012.72 1012.62 1011.92 1010.77 1010.28 1009.80 1009.64 1009.82 1009.91 1010.18 1008.83 1008.71 1008.76 1008.60 1010.03 1010.77 1009.03 1009.08 1009.16 1009.25 1009.52 1009.97 1010.67 1011.77 1012.78 1013.91 1014.92 1016.25 1017.23 1017.97 1018.75 1019.52 1020.03 1020.68 1021.97 1023.11 1024.44 1025.82 1026.80 1027.77 1028.63 1029.50 1030.39
1013.00 1012.79 1011.94 1011.47 1010.81 1010.46 1009.94 1009.92 1010.17 1010.47 1009.98 1008.82 1009.00 1009.14 1009.88 1010.27 1010.02 1010.10 1009.96 1009.89 1009.79 1009.97 1010.33 1010.80 1011.47 1012.05 1012.65 1014.11 1015.43 1016.57 1017.36 1017.27 1018.10 1019.88 1020.97 1022.04 1022.93 1024.14 1025.15 1026.18 1027.24 1028.09 1029.05 1029.84
1012.65 1012.32 1012.01 1011.67 1010.93 1010.13 1009.57 1010.32 1010.13 1008.93 1008.93 1009.19 1009.44 1009.59 1010.01 1010.30 1010.48 1010.56 1010.78 1010.53 1010.56 1010.71 1011.12 1011.60 1012.17 1012.69 1013.13 1014.10 1015.03 1016.14 1016.47 1017.04 1018.35 1019.62 1020.83 1021.96 1022.92 1024.01 1025.02 1025.77 1026.77 1027.70 1028.50 1029.52
1012.43 1011.35 1011.30 1010.79 1009.48 1008.66 1008.62 1008.81 1008.63 1008.74 1008.70 1009.21 1009.57 1009.86 1010.12 1010.40 1010.93 1011.16 1011.43 1011.38 1011.48 1011.56 1011.88 1012.34 1012.77 1013.41 1013.99 1014.36 1014.69 1015.74 1016.15 1017.13 1018.23 1019.41 1020.35 1021.37 1022.42 1023.62 1024.62 1025.35 1026.23 1027.33 1028.21 1028.81
1011.50 1011.38 1011.15 1010.59 1009.05 1008.65 1008.61 1008.83 1009.18 1009.39 1009.31 1009.34 1009.46 1009.79 1010.17 1010.51 1010.90 1011.25 1011.73 1012.12 1012.19 1012.35 1012.78 1013.21 1013.68 1014.10 1014.53 1014.67 1015.04 1015.62 1016.37 1017.14 1018.16 1019.29 1020.40 1021.26 1022.13 1022.90 1023.91 1024.79 1025.43 1026.00 1027.19 1027.75
1011.20 1011.28 1010.66 1009.94 1009.13 1008.93 1008.58 1008.65 1008.69 1009.14 1009.36 1009.61 1009.84 1010.07 1010.33 1010.75 1011.57 1011.96 1012.27 1012.79 1012.76 1012.93 1013.55 1013.94 1014.16 1014.54 1014.99 1015.23 1015.59 1016.05 1016.60 1017.28 1018.39 1019.30 1020.15 1020.98 1021.88 1022.68 1023.53 1024.01 1024.48 1024.84 1025.46 1025.81
1010.90 1010.43 1010.38 1009.07 1008.36 1008.19 1008.02 1007.98 1008.33 1009.01 1009.38 1009.87 1010.34 1010.63 1010.82 1011.33 1011.88 1012.23 1012.63 1012.95 1013.16 1013.49 1014.04 1014.62 1014.97 1015.44 1015.79 1015.80 1016.20 1016.65 1016.88 1017.36 1018.39 1019.39 1020.26 1020.98 1021.74 1022.56 1023.30 1023.95 1024.64 1024.63 1025.17 1025.48
Wind_Speed
1 4 9 15 10 4 4 4 5 4 3 2 8 11 18 8 7 9 11 13 17 18 6 8 7 7 7 6 7 6 9 8 7 6 6 5 4 5 7 6 8 9 9 8
4 9 15 5 5 5 3 4 7 7 5 6 11 16 11 10 9 14 19 18 19 11 9 10 8 7 8 9 9 9 8 9 7 5 4 4 6 5 6 6 8 9 9 10
9 5 5 9 5 6 6 7 5 7 6 4 7 14 9 10 12 12 16 20 13 17 16 14 13 12 8 11 11 11 10 10 8 9 9 8 8 7 5 6 7 7 10 10
8 5 6 6 6 9 6 9 7 5 1 6 3 19 7 8 12 8 18 21 10 11 13 15 16 14 13 11 10 11 12 10 10 11 11 14 9 11 4 5 6 8 11 10
7 6 6 6 7 8 7 6 7 2 3 3 1 4 3 3 5 11 17 11 9 12 18 20 21 17 13 12 12 11 11 10 11 11 10 8 10 9 7 8 10 10 10 9
4 2 7 7 2 6 6 6 6 4 2 7 11 9 28 2 6 7 5 3 6 9 11 11 10 12 12 11 12 11 13 11 11 12 10 10 13 15 12 11 9 8 8 7
2 5 3 5 6 4 4 7 2 4 1 10 4 7 17 10 11 6 8 7 7 7 10 12 15 14 13 14 13 12 14 13 13 11 11 12 12 12 14 13 10 12 9 7
8 5 13 7 11 9 8 8 8 8 5 5 2 11 8 7 9 7 6 4 5 7 7 11 14 14 15 15 14 14 15 14 14 14 14 13 12 8 8 8 9 7 7 8
7 7 1 3 2 11 6 6 4 5 2 2 6 9 10 10 10 11 2 3 6 5 6 8 10 11 12 13 15 15 15 14 14 14 13 14 13 12 10 10 8 7 9 8
4 2 1 2 4 4 7 7 4 3 4 7 6 7 11 9 10 7 6 7 5 6 7 6 9 11 9 10 11 11 12 14 14 15 14 14 14 13 12 10 10 11 9 9
6 4 1 3 6 11 4 3 2 5 5 5 4 9 8 6 3 7 8 6 8 8 8 8 7 5 6 6 12 13 13 14 13 12 12 13 12 12 11 10 9 10 10 8
9 4 4 8 1 1 3 9 9 5 7 5 2 14 3 4 3 4 8 2 5 7 8 7 7 6 7 9 10 12 13 13 13 12 12 12 12 11 11 9 8 9 10 8
10 3 2 4 1 1 6 6 15 6 3 8 6 12 0 0 3 3 5 3 6 7 9 9 9 11 11 10 10 11 11 12 13 13 13 12 12 13 11 10 9 9 10 9
7 4 8 13 5 6 7 8 11 12 8 7 19 22 21 2 6 5 1 4 8 9 10 11 12 14 14 13 14 12 12 13 14 14 14 15 13 13 12 11 11 11 10 11
6 10 9 10 5 4 7 8 15 20 27 13 22 16 33 12 12 11 7 7 7 9 12 15 15 13 12 13 12 12 13 14 15 15 14 14 14 13 12 12 11 10 9 9
4 7 10 17 16 12 11 10 18 18 19 19 26 24 31 5 3 6 10 8 9 10 13 13 13 14 16 16 15 13 14 14 14 16 16 14 14 13 13 12 11 10 9 9
5 12 10 24 11 10 12 34 18 18 19 21 23 32 27 9 16 19 11 9 13 15 15 15 18 18 16 18 18 17 15 13 14 14 14 14 14 14 14 13 12 11 11 10
6 3 2 4 3 14 10 4 13 19 23 24 24 23 20 21 17 9 8 10 11 12 13 14 14 15 18 16 16 16 16 16 16 15 15 15 15 15 14 14 13 11 10 10
10 11 8 7 12 9 3 4 8 11 18 20 19 22 25 23 3 19 9 12 16 15 14 13 11 8 10 14 14 15 16 17 17 17 17 18 17 16 15 15 14 11 10 8
5 4 8 4 5 7 5 4 5 5 10 7 15 21 19 6 3 12 2 4 6 6 7 9 10 8 12 13 14 16 16 16 17 18 19 18 17 17 16 15 14 11 10 9
5 4 13 8 4 3 7 4 4 6 9 2 3 4 4 7 5 2 5 4 5 0 5 7 12 15 15 15 16 16 16 21 17 12 12 13 15 16 15 15 11 11 10 9
7 7 4 3 5 8 9 4 10 6 2 2 1 1 3 5 3 1 2 2 5 5 4 5 6 6 8 13 16 17 19 12 13 15 14 14 14 12 11 14 11 10 10 9
5 8 7 10 8 1 7 2 3 4 5 4 4 3 3 5 4 3 2 2 2 3 3 2 7 8 7 12 14 14 11 11 14 15 17 15 16 14 12 14 13 10 10 9
5 3 3 2 5 5 4 3 3 5 4 4 4 4 6 4 5 4 2 2 1 2 2 2 5 6 6 3 6 6 8 11 13 14 13 11 14 14 13 10 10 11 11 10
4 5 4 5 5 4 7 7 6 8 3 2 2 2 4 4 3 3 2 4 3 2 1 2 4 4 5 5 5 6 8 12 12 11 10 10 10 12 11 11 11 12 12 13
6 8 6 7 6 3 4 1 5 8 8 8 7 4 3 4 5 4 4 4 3 3 1 2 3 3 3 5 6 6 8 11 11 9 7 8 8 8 9 9 3 16 14 19
Wind_Direction
99 126 197 210 200 163 149 198 235 247 246 204 234 238 259 224 216 234 235 221 224 223 188 169 173 161 153 156 157 152 138 139 135 128 119 104 94 95 80 81 97 94 106 100
67 224 219 145 161 198 184 213 248 298 232 189 269 259 242 239 221 220 228 228 223 201 172 174 170 169 172 166 168 161 153 150 147 139 109 114 116 92 93 91 87 90 95 92
178 214 166 170 159 167 217 211 238 230 316 241 306 267 226 247 228 240 240 237 222 202 181 177 180 184 172 179 172 166 159 158 144 124 114 104 105 100 107 103 88 85 88 81
239 231 149 162 192 170 221 201 198 239 94 256 12 292 199 227 238 224 244 240 219 181 182 178 180 185 184 180 169 166 160 154 142 140 141 148 146 142 130 115 115 101 88 89
237 175 177 183 198 158 221 136 176 194 193 327 187 275 104 192 252 254 252 244 206 185 179 183 188 180 176 169 168 164 156 147 147 146 151 144 137 112 122 118 118 110 103 97
225 171 153 206 109 150 141 85 58 59 68 271 192 170 285 182 215 254 322 267 216 188 184 181 170 158 169 162 162 160 155 150 149 150 150 144 147 143 141 138 136 129 117 107
137 212 207 157 90 51 114 101 320 335 7 245 329 210 254 310 293 244 283 283 229 184 166 159 161 163 166 166 165 161 161 155 150 140 133 140 145 148 146 148 143 143 133 123
173 264 172 191 185 180 189 161 160 204 207 274 300 242 252 239 274 268 256 314 157 172 173 176 170 163 167 168 167 167 163 158 156 148 143 142 144 150 148 140 140 133 126 123
174 268 201 188 117 149 192 197 170 83 83 7 232 291 295 266 279 269 294 164 190 181 168 167 162 164 165 171 173 171 164 159 158 153 147 152 153 158 153 142 139 136 128 129
213 240 204 123 104 43 160 163 97 73 194 236 274 264 236 283 278 329 271 243 210 152 151 162 164 162 166 170 170 164 166 163 162 157 160 159 158 154 148 143 143 142 133 129
158 162 247 113 203 176 138 169 165 129 158 188 293 258 215 233 272 298 299 233 182 173 167 161 164 167 157 143 164 161 160 158 160 161 159 157 153 149 145 140 139 135 126 126
202 153 182 201 175 305 248 190 174 145 208 226 148 268 174 212 273 291 306 245 160 169 165 155 149 154 164 162 160 162 161 159 162 160 154 151 143 142 141 138 138 137 136 132
175 187 161 315 50 359 217 209 200 128 74 205 177 260 224 311 287 266 289 157 163 166 164 161 161 171 176 179 169 166 165 162 158 152 151 150 150 149 144 139 139 136 136 135
108 159 192 227 191 138 186 184 198 183 206 155 228 260 256 312 274 272 261 206 186 184 194 186 186 186 181 186 177 171 168 166 158 158 156 157 157 155 150 147 146 148 149 145
176 206 199 245 224 203 197 189 200 206 223 197 248 226 260 222 236 257 224 210 186 197 198 198 196 195 184 181 184 177 173 165 162 159 162 163 156 150 147 150 151 149 150 146
205 238 169 250 229 229 236 221 212 217 237 233 248 252 255 190 267 254 224 202 200 217 222 207 194 192 190 185 183 177 174 170 168 167 165 158 154 151 152 151 151 152 150 148
199 220 202 241 223 197 225 233 221 221 231 225 232 242 264 259 259 254 259 195 217 217 218 203 199 194 192 189 179 181 173 162 170 166 160 158 156 155 157 157 156 162 163 155
177 239 209 244 148 222 236 143 216 209 232 230 238 251 257 255 266 259 212 216 233 221 219 208 198 196 197 185 183 173 166 166 167 168 163 161 159 163 162 165 168 162 161 165
214 218 248 245 246 266 243 218 154 163 244 230 228 244 254 263 350 278 208 221 233 218 217 206 196 180 176 182 177 172 169 169 170 175 172 170 170 168 169 171 171 165 162 166
197 217 218 213 206 227 266 238 182 79 266 193 197 232 244 119 243 270 295 318 270 211 169 161 153 144 161 171 169 170 176 176 186 184 178 174 171 170 172 174 171 171 175 175
168 186 215 223 244 241 254 163 178 135 239 259 157 265 145 200 220 320 325 2 354 267 173 143 156 173 174 165 167 179 180 194 186 172 167 169 169 170 174 175 173 167 170 158
178 175 187 198 225 247 168 83 183 199 135 112 210 223 223 253 271 298 327 15 32 66 91 142 152 162 151 165 170 182 195 174 163 164 164 165 169 175 177 175 172 173 167 175
232 193 189 197 208 258 217 160 144 169 145 181 181 195 213 189 228 243 275 80 64 80 103 132 159 151 162 170 176 188 184 155 161 166 178 178 174 178 181 179 176 171 180 182
214 183 218 94 252 229 227 225 213 205 218 182 187 192 165 193 203 214 205 252 154 98 110 109 130 154 167 147 169 174 145 154 162 173 180 177 180 179 183 189 188 181 186 184
183 141 188 270 272 295 251 227 213 211 196 203 196 191 201 141 233 218 221 224 208 155 121 147 147 149 167 147 128 129 137 148 165 169 172 174 179 183 182 193 188 191 196 190
188 183 180 218 221 192 248 324 174 195 201 201 189 182 184 174 206 183 222 210 178 197 163 130 138 134 168 141 145 145 149 156 155 150 155 168 170 173 181 183 169 214 206 206